FW7659 Weather Reports


time (UTC)temp
C
wind
direction
speed
KPH
gust
KPH
rain 1hr
cm
rain 24hr
cm
rain mn
cm
humidity
%
barometer
mb
20260504081903 11 72 0.0 0.0 0.00 0.00 0.00 57 1019.2
20260504081404 11 72 0.0 0.0 0.00 0.00 0.00 59 1019.2
20260504080903 11 72 0.0 0.0 0.00 0.00 0.00 59 1019.2
20260504080404 11 72 0.0 0.0 0.00 0.00 0.00 60 1019.2
20260504070403 11 81 0.0 0.0 0.00 0.00 0.00 60 1019.5
20260504050403 11 49 0.0 0.0 0.00 0.00 0.00 57 1020.2
20260504045904 11 61 0.0 1.6 0.00 0.00 0.00 58 1020.1
20260504045404 11 29 0.0 3.2 0.00 0.00 0.00 61 1020.1
20260504044904 11 51 0.0 0.0 0.00 0.00 0.00 62 1020.1
20260504044404 11 62 0.0 0.0 0.00 0.00 0.00 61 1020.1
20260504043903 11 66 0.0 0.0 0.00 0.00 0.00 62 1019.9
20260504043404 11 66 0.0 0.0 0.00 0.00 0.00 62 1019.9
20260504042903 11 66 0.0 0.0 0.00 0.00 0.00 62 1019.9
20260504041904 11 66 0.0 0.0 0.00 0.00 0.00 62 1020.1
20260504041403 11 66 0.0 0.0 0.00 0.00 0.00 60 1020.1
20260504040904 11 66 0.0 0.0 0.00 0.00 0.00 61 1020.1
20260504040403 11 66 0.0 0.0 0.00 0.00 0.00 63 1020.0
20260504035404 11 66 0.0 0.0 0.00 0.00 0.00 61 1020.0
20260504034904 11 66 0.0 0.0 0.00 0.00 0.00 61 1019.9
20260504034404 11 66 0.0 0.0 0.00 0.00 0.00 60 1019.9
20260504033904 11 66 0.0 0.0 0.00 0.00 0.00 60 1019.9
20260504033404 11 66 0.0 0.0 0.00 0.00 0.00 58 1019.9
20260504032403 12 66 0.0 0.0 0.00 0.00 0.00 57 1019.9
20260504031904 12 66 0.0 0.0 0.00 0.00 0.00 57 1019.9
20260504031404 12 66 0.0 0.0 0.00 0.00 0.00 56 1020.0
20260504030904 12 66 0.0 0.0 0.00 0.00 0.00 55 1020.1
20260504025904 12 66 0.0 0.0 0.00 0.00 0.00 54 1020.1
20260504024904 12 42 0.0 0.0 0.00 0.00 0.00 55 1019.9
20260504024404 12 38 0.0 0.0 0.00 0.00 0.00 55 1019.9
20260504023904 12 36 0.0 0.0 0.00 0.00 0.00 54 1019.9
20260504023404 12 36 0.0 0.0 0.00 0.00 0.00 54 1020.0
20260504022904 12 36 0.0 0.0 0.00 0.00 0.00 54 1019.9
20260504022404 12 36 0.0 0.0 0.00 0.00 0.00 54 1019.9
20260504021904 12 16 0.0 0.0 0.00 0.00 0.00 54 1019.7
20260504020904 12 16 0.0 0.0 0.00 0.00 0.00 55 1019.7
20260504020403 12 16 0.0 0.0 0.00 0.00 0.00 55 1019.6
20260504015904 12 16 0.0 0.0 0.00 0.00 0.00 55 1019.7
20260504014904 12 16 0.0 0.0 0.00 0.00 0.00 54 1019.6
20260504013404 12 16 0.0 0.0 0.00 0.00 0.00 54 1019.6
20260504012904 12 16 0.0 0.0 0.00 0.00 0.00 55 1019.5
20260504012404 12 16 0.0 0.0 0.00 0.00 0.00 56 1019.4
20260504011904 12 16 0.0 0.0 0.00 0.00 0.00 57 1019.3
20260504011404 12 16 0.0 0.0 0.00 0.00 0.00 57 1019.3
20260504010904 12 16 0.0 0.0 0.00 0.00 0.00 58 1019.2
20260504010403 12 16 0.0 0.0 0.00 0.00 0.00 57 1019.2
20260504005903 12 16 0.0 0.0 0.00 0.00 0.00 59 1019.2
20260504005403 12 16 0.0 0.0 0.00 0.00 0.00 55 1019.1
20260504004903 13 16 0.0 0.0 0.00 0.00 0.00 54 1019.1
20260504003903 12 15 0.0 0.0 0.00 0.00 0.00 56 1019.0
20260504003403 12 15 0.0 0.0 0.00 0.00 0.00 56 1019.0
20260504002904 12 16 0.0 0.0 0.00 0.00 0.00 56 1019.0
20260504002404 13 16 0.0 1.6 0.00 0.00 0.00 55 1019.0
20260504001904 13 22 0.0 0.0 0.00 0.00 0.00 58 1019.1
20260504001403 13 22 0.0 0.0 0.00 0.00 0.00 58 1019.0
20260504000405 13 22 0.0 0.0 0.00 0.00 0.00 54 1019.0
20260503235904 13 22 0.0 3.2 0.00 0.00 0.00 53 1019.0
20260503235404 13 10 0.0 3.2 0.00 0.00 0.00 56 1018.9
20260503234904 13 330 0.0 0.0 0.00 0.00 0.00 56 1018.9
20260503234403 13 330 0.0 0.0 0.00 0.00 0.00 55 1018.9
20260503233904 13 330 0.0 0.0 0.00 0.00 0.00 55 1018.9
20260503233403 13 330 0.0 3.2 0.00 0.00 0.00 54 1018.9
20260503232903 13 330 0.0 3.2 0.00 0.00 0.00 54 1018.9
20260503232404 13 349 0.0 3.2 0.00 0.00 0.00 54 1018.9
20260503231904 13 324 0.0 3.2 0.00 0.00 0.00 53 1018.9
20260503231404 13 337 0.0 3.2 0.00 0.00 0.00 53 1018.9
20260503230904 13 335 0.0 3.2 0.00 0.00 0.00 55 1018.9
20260503230404 14 334 0.0 3.2 0.00 0.00 0.00 56 1018.9
20260503225904 14 358 0.0 1.6 0.00 0.00 0.00 52 1018.9
20260503225403 15 234 0.0 0.0 0.00 0.00 0.00 48 1019.0
20260503224904 14 234 0.0 0.0 0.00 0.00 0.00 52 1019.0
20260503224403 14 296 0.0 0.0 0.00 0.00 0.00 52 1019.0
20260503223904 14 334 0.0 0.0 0.00 0.00 0.00 50 1019.0
20260503222904 15 265 0.0 0.0 0.00 0.00 0.00 50 1019.0
20260503222403 15 14 0.0 0.0 0.00 0.00 0.00 49 1019.1
20260503220904 15 2 0.0 1.6 0.00 0.00 0.00 48 1019.1
20260503220404 15 300 0.0 0.0 0.00 0.00 0.00 48 1019.1
20260503215904 15 321 0.0 0.0 0.00 0.00 0.00 51 1019.1
20260503215404 15 324 0.0 0.0 0.00 0.00 0.00 51 1019.1
20260503214904 15 322 0.0 0.0 0.00 0.00 0.00 51 1019.0
20260503213904 16 349 0.0 3.2 0.00 0.00 0.00 51 1019.0
20260503213404 16 26 0.0 0.0 0.00 0.00 0.00 52 1019.1
20260503212904 16 26 0.0 3.2 0.00 0.00 0.00 49 1019.0
20260503212404 16 285 0.0 3.2 0.00 0.00 0.00 50 1019.1
20260503211904 16 335 0.0 3.2 0.00 0.00 0.00 49 1019.2
20260503210904 16 306 0.0 3.2 0.00 0.00 0.00 48 1019.2
20260503210404 16 326 1.6 3.2 0.00 0.00 0.00 43 1019.3
20260503205904 16 338 0.0 3.2 0.00 0.00 0.00 47 1019.3
20260503205403 16 9 0.0 3.2 0.00 0.00 0.00 49 1019.4
20260503204903 16 265 0.0 3.2 0.00 0.00 0.00 47 1019.5
20260503203404 16 230 0.0 3.2 0.00 0.00 0.00 48 1019.7
20260503202904 16 316 0.0 1.6 0.00 0.00 0.00 47 1019.7
20260503201904 17 325 1.6 3.2 0.00 0.00 0.00 47 1019.9
20260503201403 17 30 0.0 1.6 0.00 0.00 0.00 46 1020.0
20260503200904 17 270 0.0 3.2 0.00 0.00 0.00 44 1020.0
20260503200404 17 325 0.0 1.6 0.00 0.00 0.00 47 1020.0
20260503195904 17 5 1.6 3.2 0.00 0.00 0.00 45 1020.1
20260503195404 17 353 1.6 4.8 0.00 0.00 0.00 45 1020.2
20260503194904 17 285 1.6 4.8 0.00 0.00 0.00 44 1020.4
20260503194403 18 303 0.0 3.2 0.00 0.00 0.00 49 1020.4
20260503193904 18 309 1.6 4.8 0.00 0.00 0.00 45 1020.6
20260503193404 18 324 1.6 3.2 0.00 0.00 0.00 45 1020.6
20260503192403 17 313 1.6 8.0 0.00 0.00 0.00 44 1020.7
20260503191404 18 307 1.6 3.2 0.00 0.00 0.00 44 1020.9
20260503190903 18 355 1.6 1.6 0.00 0.00 0.00 45 1020.9
20260503190403 18 302 1.6 4.8 0.00 0.00 0.00 48 1021.0
20260503185904 18 328 0.0 3.2 0.00 0.00 0.00 43 1021.0
20260503185404 18 322 1.6 4.8 0.00 0.00 0.00 44 1021.1
20260503184904 18 322 1.6 4.8 0.00 0.00 0.00 44 1021.1
20260503184404 18 220 1.6 3.2 0.00 0.00 0.00 47 1021.1
20260503183904 18 323 0.0 1.6 0.00 0.00 0.00 46 1021.2
20260503183404 18 347 1.6 3.2 0.00 0.00 0.00 49 1021.1
20260503182904 18 311 1.6 3.2 0.00 0.00 0.00 45 1021.1
20260503182404 18 343 1.6 3.2 0.00 0.00 0.00 44 1021.2
20260503181904 18 332 1.6 1.6 0.00 0.00 0.00 44 1021.2
20260503181403 18 315 1.6 3.2 0.00 0.00 0.00 45 1021.3
20260503180903 18 340 1.6 3.2 0.00 0.00 0.00 46 1021.3
20260503180404 18 336 1.6 3.2 0.00 0.00 0.00 44 1021.3
20260503175404 17 271 0.0 4.8 0.00 0.00 0.00 44 1021.3
20260503174903 18 254 0.0 3.2 0.00 0.00 0.00 47 1021.3
20260503173903 17 313 1.6 3.2 0.00 0.00 0.00 44 1021.4
20260503172904 17 337 1.6 3.2 0.00 0.00 0.00 46 1021.5
20260503172403 17 320 1.6 3.2 0.00 0.00 0.00 43 1021.5
20260503171904 17 288 0.0 1.6 0.00 0.00 0.00 47 1021.5
20260503171404 17 342 1.6 4.8 0.00 0.00 0.00 48 1021.6
20260503170903 17 290 0.0 1.6 0.00 0.00 0.00 46 1021.7
20260503170404 16 304 1.6 3.2 0.00 0.00 0.00 42 1021.7
20260503150903 14 4 1.6 3.2 0.00 0.00 0.00 52 1022.6
20260503150404 13 27 0.0 4.8 0.00 0.00 0.00 49 1022.6
20260503131403 11 325 1.6 9.7 0.00 0.00 0.00 63 1021.9
20260503130904 10 119 1.6 4.8 0.00 0.00 0.00 64 1021.9
20260503130404 10 320 1.6 4.8 0.00 0.00 0.00 65 1021.8
20260503110404 7 39 0.0 1.6 0.00 0.00 0.00 67 1021.0